Marietta, GA

5:25 AM EDT on May 25, 2018 (GMT -0400)
Dobbins Air Force Base

Weather History for KMGE - February, 2013

Change the Weather History Date:

Wednesday, February 27, 2013

  Actual Average Record
Temperature  
Mean Temperature 50 °F -  
Max Temperature 59 °F 56 °F 74 °F (2011)
Min Temperature 41 °F 38 °F 19 °F (2002)
Degree Days  
Heating Degree Days 15    
Moisture  
Dew Point 33 °F    
Average Humidity 61    
Maximum Humidity 77    
Minimum Humidity 35    
Precipitation  
Precipitation 0.00 in - - ()
Sea Level Pressure  
Sea Level Pressure 29.85 in    
Wind  
Wind Speed 12 mph (West)    
Max Wind Speed 17 mph    
Max Gust Speed 28 mph    
Visibility 10 miles    
Events      
Averages and records for this station are not official NWS values.
T = Trace of Precipitation, MM = Missing Value Source: NWS Daily Summary

Daily Weather History Graph

Daily Weather History Graph

Search for Another Location

Airport or City:

Astronomy

Feb. 27, 2013 Rise Set
Actual Time 7:08 AM EST 6:33 PM EST
Civil Twilight 6:43 AM EST 6:58 PM EST
Nautical Twilight 6:14 AM EST 7:27 PM EST
Astronomical Twilight 5:45 AM EST 7:56 PM EST
Moon 8:44 PM EST (2/27) 7:51 AM EST (2/27)
Length of Visible Light 12h 14m
Length of Day
11h 24m
Waning Gibbous, 96% of the Moon is Illuminated
Feb 27
Waning Gibbous
Mar 4
Last Quarter
Mar 11
New
Mar 19
First Quarter
Mar 27
Full

Hourly Weather History & Observations

Time (EST) Temp. Windchill Dew Point Humidity Pressure Visibility Wind Dir Wind Speed Gust Speed Precip Events Conditions
12:03 AM 42.8 °F 36.6 °F 35.6 °F 76% 29.79 in 10.0 mi West 11.5 mph - N/A   Overcast
12:48 AM 42.8 °F 35.4 °F 33.8 °F 70% 29.80 in 10.0 mi West 15.0 mph - N/A   Overcast
12:58 AM 42.6 °F 36.3 °F 33.6 °F 70% 29.82 in 10.0 mi WSW 11.5 mph - N/A   Overcast
1:58 AM 42.4 °F 35.7 °F 33.4 °F 70% 29.82 in 10.0 mi WSW 12.7 mph - N/A   Overcast
2:58 AM 42.1 °F 34.2 °F 33.8 °F 72% 29.81 in 10.0 mi West 16.1 mph - N/A   Overcast
3:43 AM 41.0 °F 33.9 °F 33.8 °F 76% 29.81 in 10.0 mi West 12.7 mph - N/A   Overcast
3:58 AM 41.5 °F 34.2 °F 34.5 °F 76% 29.83 in 10.0 mi West 13.8 mph - N/A   Overcast
4:58 AM 41.2 °F 33.7 °F 34.0 °F 76% 29.84 in 10.0 mi West 13.8 mph - N/A   Overcast
5:58 AM 41.0 °F 34.3 °F 34.3 °F 77% 29.85 in 10.0 mi WNW 11.5 mph - N/A   Overcast
6:58 AM 41.0 °F 35.8 °F 34.3 °F 77% 29.86 in 10.0 mi West 8.1 mph - N/A   Overcast
7:58 AM 41.0 °F 35.2 °F 34.3 °F 77% 29.88 in 10.0 mi WNW 9.2 mph - N/A   Mostly Cloudy
8:58 AM 41.4 °F 34.7 °F 32.2 °F 70% 29.92 in 10.0 mi West 11.5 mph - N/A   Overcast
9:58 AM 44.1 °F 37.1 °F 32.5 °F 64% 29.91 in 10.0 mi West 15.0 mph 23.0 mph N/A   Mostly Cloudy
10:03 AM 44.6 °F 39.2 °F 32.0 °F 61% 29.90 in 10.0 mi WNW 10.4 mph 24.2 mph N/A   Mostly Cloudy
10:58 AM 46.2 °F 41.7 °F 33.1 °F 60% 29.91 in 10.0 mi West 9.2 mph - N/A   Mostly Cloudy
11:58 AM 48.4 °F - 33.3 °F 56% 29.91 in 10.0 mi WSW 6.9 mph - N/A   Mostly Cloudy
12:58 PM 52.2 °F - 35.4 °F 53% 29.89 in 10.0 mi SSW 9.2 mph - N/A   Mostly Cloudy
1:55 PM 54.3 °F - 35.6 °F 49% 29.86 in 10.0 mi WSW 11.5 mph - N/A   Partly Cloudy
2:53 PM 58.1 °F - 34.5 °F 41% 29.83 in 10.0 mi WSW 11.5 mph - N/A   Partly Cloudy
3:58 PM 59.5 °F - 32.9 °F 37% 29.82 in 10.0 mi West 17.3 mph - N/A   Partly Cloudy
4:58 PM 58.3 °F - 30.6 °F 35% 29.82 in 10.0 mi WSW 17.3 mph 24.2 mph N/A   Partly Cloudy
5:58 PM 56.5 °F - 31.6 °F 39% 29.83 in 10.0 mi West 16.1 mph 27.6 mph N/A   Partly Cloudy
6:58 PM 53.4 °F - 32.4 °F 45% 29.84 in 10.0 mi West 12.7 mph - N/A   Partly Cloudy
7:55 PM 51.8 °F - 32.0 °F 47% 29.85 in 10.0 mi West 9.2 mph - N/A   Mostly Cloudy
7:58 PM 51.8 °F - 33.4 °F 50% 29.86 in 10.0 mi West 8.1 mph - N/A   Mostly Cloudy
8:58 PM 51.8 °F - 33.8 °F 50% 29.86 in 10.0 mi WSW 8.1 mph - N/A   Overcast
11:58 PM 47.8 °F - 36.0 °F 63% 29.87 in 10.0 mi WNW 18.4 mph 26.5 mph N/A   Mostly Cloudy